Miscellaneous Local Product
Issued by NWS North Platte, NE

Home | Current Version | Previous Version | Graphics & Text | Print | Product List | Glossary On
Versions: 1 2 3 4 5 6 7 8 9 10 11 12 13 14 15 16 17 18 19 20 21 22 23 24 25 26 27 28 29 30 31 32 33 34 35 36 37 38 39 40 41 42 43 44 45 46 47 48 49 50
907
AXUS43 KLBF 221810
MISLBF


WESTERN AND NORTH CENTRAL NEBRASKA HOURLY WEATHER ROUNDUP
NATIONAL WEATHER SERVICE NORTH PLATTE NE
1200 PM CST SUN JAN 22 2017

NOTE: "FAIR" INDICATES FEW OR NO CLOUDS BELOW 12,000 FEET WITH NO
SIGNIFICANT WEATHER AND/OR OBSTRUCTIONS TO VISIBILITY.

NOTE: STATIONS NOT REPORTING VARIABLES SUCH AS SKY/WEATHER OR
PRESSURE ARE PROVIDED BY RAWS AND APRS NETWORKS AND ARE NOT UNDER
NATIONAL WEATHER SERVICE QUALITY CONTROL.

...OBSERVATIONS IN AND NEAR THE EASTERN PANHANDLE OF NEBRASKA...

CITY           SKY/WX    TMP DP  RH WIND       PRES   REMARKS
PINE RIDGE     MOSUNNY   34  26  72 W12       29.89R WCI  25
CHADRON        CLOUDY    34  27  75 W5        29.90R WCI  30
ALLIANCE       SUNNY     39  26  59 W16       29.88S WCI  30
SIDNEY         SUNNY     42  21  43 NW22G33   29.91S
CRESCENT LAKE    N/A     39  25  58 W13         N/A  WCI  31
$$

...OBSERVATIONS IN NORTHERN NEBRASKA AND FAR SOUTHERN SOUTH DAKOTA...

CITY           SKY/WX    TMP DP  RH WIND       PRES   REMARKS
WINNER         FAIR      37  29  72 NW14      29.85S WCI  28
VALENTINE      SUNNY     40  28  62 NW16      29.85S WCI  31
THEDFORD       SUNNY     44  32  64 NW10      29.86F
AINSWORTH      SUNNY     39  30  70 NW17      29.84F WCI  30
O`NEILL        SUNNY     39  29  68 NW10      29.83F WCI  32
ORD            SUNNY     41  31  67 NW13      29.83S
BROKEN BOW     SUNNY     43  32  65 NW13      29.84S
VALENTINE NWR    N/A     38  30  73 NW12        N/A  WCI  30
BUTTE            N/A     37  30  75 N13         N/A  WCI  29
HALSEY           N/A     41  30  64 W7          N/A
SARGENT          N/A     43  33  67 NW6         N/A
CHAMBERS         N/A     41  26  55 N3          N/A
EWING            N/A     37  31  78 N12         N/A  WCI  29
$$

...OBSERVATIONS IN SOUTHWEST NEBRASKA AND FAR NORTHEAST COLORADO...

CITY           SKY/WX    TMP DP  RH WIND       PRES   REMARKS
WRAY           FAIR      45  27  49 N14G20    29.92R
HOLYOKE        FAIR      45  27  49 NW17G24   29.91S
IMPERIAL       SUNNY     42  27  55 NW16      29.90F
OGALLALA       SUNNY     42  29  62 NW16G22   29.89F
NORTH PLATTE   SUNNY     43  31  62 W10       29.88F
MCCOOK         SUNNY     44  30  57 NW14      29.89S
LEXINGTON      SUNNY     43  32  67 NW12      29.86F
STAPLETON        N/A     44  31  61 CALM        N/A
GOTHENBURG       N/A     42  28  58 NW10        N/A
CALLAWAY         N/A     42  33  70 NW15        N/A
$$

...OBSERVATIONS IN CENTRAL LINCOLN COUNTY AREA...

CITY           SKY/WX    TMP DP  RH WIND       PRES   REMARKS
N.P. AIRPORT   SUNNY     43  31  62 W10       29.88F
N.P. DOWNTOWN    N/A     41  32  71 W5          N/A
N.P. SOUTHEAST   N/A     41  32  69 NW3         N/A
N.P. HILLCREST   N/A     42  31  64 NW9         N/A
$$

...SOME OBSERVATIONS FROM AROUND THE REGION...

CITY           SKY/WX    TMP DP  RH WIND       PRES   REMARKS
LARAMIE        SUNNY     23  12  62 S8        29.92S WCI  14
CHEYENNE       SUNNY     35  10  35 NW16G28   29.93R WCI  25
DENVER         MOSUNNY   42  11  28 SW7       29.93F
AKRON          SUNNY     40  20  44 NW17      29.92S WCI  31
SCOTTSBLUFF    SUNNY     40  23  50 NW15      29.92S WCI  32
RAPID CITY     SUNNY     39  25  57 N5        29.85S
BISMARCK       CLOUDY    33  29  85 NW10      29.81R WCI  25
PIERRE         SUNNY     28  22  78 W12       29.85S WCI  18
SIOUX FALLS    CLOUDY    33  32  96 NW13      29.79R WCI  24
OMAHA          CLOUDY    36  30  79 NW13      29.79F WCI  27
GRAND ISLAND   SUNNY     39  30  70 N14       29.85R WCI  31
KANSAS CITY    CLOUDY    35  30  82 N14       29.72R WCI  26
WICHITA        MOSUNNY   49  34  56 N22       29.77S
OKLAHOMA CITY  MOSUNNY   54  39  57 N30G40    29.71R
DALLAS         CLOUDY    58  45  62 NW23G31   29.64R
AMARILLO       SUNNY     50  33  52 NW18G25   29.95R
DODGE CITY     SUNNY     47  35  63 NW16G24   29.88S
HAYS           SUNNY     47  28  47 NW16      29.86S
GOODLAND       SUNNY     42  26  53 N20       29.91S
$$




USA.gov is the U.S. government's official web portal to all federal, state and local government web resources and services.